Home > Weather > Namsos > Past weeks

Flag for Norway Past Weather in Namsos, Norway — Yesterday and Last 2 Weeks

Now
64 °F

Sprinkles. Partly sunny.


Feels Like: 64 °F
Forecast: 50 / 55 °F
Wind: 16 mph from East

Location: Namsos Lufthavn

Current Time: Jun 27, 2016 at 9:55:16 AM

Latest Report: Jun 27, 2016 at 8:50 AM


Visibility: N/A

Pressure: 29.59 "Hg

Humidity: 83%

Dew Point: 59 °F

Location of NamsosLocation

Past Weather in Namsos — Graph

°F

Namsos Temperature Yesterday

Maximum temperature yesterday: 79 °F (at 5:20 PM)
Minimum temperature yesterday: 73 °F (at 2:50 PM)
Average temperature yesterday: 76 °F

High & Low Weather Summary for the Past Weeks

 TemperatureHumidityPressure
High79 °F (Jun 26, 5:20 PM)100% (Jun 20, 5:50 AM)30.09 "Hg (Jun 20, 5:50 AM)
Low43 °F (Jun 15, 5:50 AM)37% (Jun 20, 5:20 PM)29.59 "Hg (Jun 27, 7:50 AM)
Average57 °F68%29.85 "Hg
* Reported Jun 12 1:50 PM — Jun 27 8:20 AM, Namsos, Weather by CustomWeather, © 2016

Note: Actual official high and low records may vary slightly from our data, if they occured in-between our weather recording intervals... More about our weather records

Advertising

Namsos Weather History for the Previous 24 Hours

Scroll right to see more
 ConditionsComfort  
Time TempWeatherWind HumidityBarometerVisibility
8:20 AM
Mon, Jun 27
64 °FSprinkles. Broken clouds.17 mph78%29.59 "HgN/A
7:50 AM66 °FSunny.16 mph73%29.59 "Hg10 mi
7:20 AM66 °FScattered showers. Partly sunny.18 mph73%29.62 "HgN/A
6:20 AM66 °FSunny.14 mph68%29.62 "Hg10 mi
5:50 AM68 °FSunny.13 mph64%29.62 "Hg10 mi
9:50 PM
Sun, Jun 26
75 °FSunny.12 mph50%29.68 "Hg10 mi
9:20 PM75 °FSunny.12 mph54%29.68 "Hg10 mi
8:50 PM77 °FSunny.13 mph47%29.68 "Hg10 mi
8:20 PM77 °FSunny.13 mph51%29.71 "Hg10 mi
7:50 PM77 °FSunny.13 mph51%29.71 "Hg10 mi
7:20 PM77 °FSunny.10 mph51%29.74 "Hg10 mi
6:50 PM77 °FSunny.13 mph51%29.74 "Hg10 mi
6:20 PM77 °FSunny.13 mph51%29.74 "Hg10 mi
5:50 PM77 °FPassing clouds.14 mph47%29.77 "HgN/A
5:20 PM79 °FPassing clouds.12 mph48%29.77 "HgN/A
4:50 PM77 °FSunny.10 mph51%29.77 "Hg10 mi
4:20 PM77 °FSunny.9 mph51%29.80 "Hg10 mi
3:50 PM77 °FSunny.N/A47%29.80 "Hg10 mi
3:20 PM77 °FSunny.13 mph47%29.83 "Hg10 mi
2:50 PM73 °FPassing clouds.5 mph57%29.83 "HgN/A
2:20 PM75 °FSunny.6 mph54%29.83 "Hg10 mi
1:50 PM75 °FSunny.8 mph50%29.86 "Hg10 mi
Weather by CustomWeather, © 2016

See weather overviewHow to use our weather pages